User: anonymous   Login
Location: Houston
(29.7631°N, 95.3631°W)
Time: 11:40:42
(UTC-05:00)
Language:

BEESAT 3 - Orbit

View from above orbital plane
View from above orbital plane
View from above satellite
View from above satellite

Ground track
Ground track

The orbit data is extracted from the following two-line orbital elements,

1 39134U 13015E   21268.19887497  .00004956  00000-0  21662-3 0  9996
2 39134  64.8638 207.9672 0018648 315.7596  44.2041 15.23135137466780
Epoch (UTC): 25 September 2021 04:46:22
Eccentricity: 0.0018648
inclination: 64.8638°
perigee height: 483 km
apogee height: 509 km
right ascension of ascending node: 207.9672°
argument of perigee: 315.7596°
revolutions per day: 15.23135137
mean anomaly at epoch: 44.2041°
orbit number at epoch: 46678

The dashed part of the orbit path shows where the satellite is in the earth's shadow,  

DLR